TimeEST,TemperatureF,Dew PointF,Humidity,Sea Level PressureIn,VisibilityMPH,Wind Direction,Wind SpeedMPH,Gust SpeedMPH,PrecipitationIn,Events,Conditions,WindDirDegrees,DateUTC
12:53 AM,28.9,10.9,47,29.84,10.0,SW,6.9,-,N/A,,Clear,230,2013-02-01 05:53:00
1:53 AM,28.9,12.0,49,29.85,10.0,SW,5.8,-,N/A,,Partly Cloudy,230,2013-02-01 06:53:00
2:53 AM,30.0,12.9,49,29.84,10.0,SSW,4.6,-,N/A,,Overcast,210,2013-02-01 07:53:00
3:53 AM,30.0,12.9,49,29.83,10.0,WSW,4.6,-,N/A,,Overcast,240,2013-02-01 08:53:00
4:53 AM,28.9,15.1,56,29.85,9.0,NW,6.9,-,N/A,,Overcast,320,2013-02-01 09:53:00
5:01 AM,28.4,17.6,64,29.80,2.5,WNW,8.1,-,0.00,Snow,Light Snow,300,2013-02-01 10:01:00
5:16 AM,26.6,19.4,74,29.81,1.8,Variable,6.9,-,0.00,Snow,Light Snow,0,2013-02-01 10:16:00
5:29 AM,26.6,19.4,74,29.82,0.8,WNW,6.9,-,0.00,Snow,Light Snow,300,2013-02-01 10:29:00
5:51 AM,26.6,19.4,74,29.84,0.5,Variable,4.6,-,0.01,Snow,Snow,0,2013-02-01 10:51:00
5:53 AM,26.1,19.9,78,29.89,0.5,Variable,6.9,-,0.01,Snow,Snow,0,2013-02-01 10:53:00
6:01 AM,26.6,17.6,69,29.84,2.0,WNW,12.7,21.9,0.00,Snow,Light Snow,290,2013-02-01 11:01:00
6:11 AM,26.6,17.6,69,29.83,5.0,WNW,5.8,-,0.00,Snow,Light Snow,300,2013-02-01 11:11:00
6:24 AM,26.6,17.6,69,29.83,10.0,West,6.9,-,0.00,,Overcast,280,2013-02-01 11:24:00
6:53 AM,26.1,17.1,69,29.91,10.0,West,5.8,-,0.00,,Overcast,280,2013-02-01 11:53:00
7:53 AM,24.1,9.0,53,29.96,10.0,WNW,9.2,23.0,N/A,,Overcast,290,2013-02-01 12:53:00
8:53 AM,23.0,8.1,53,30.02,10.0,NNW,13.8,24.2,N/A,,Mostly Cloudy,340,2013-02-01 13:53:00
9:53 AM,24.1,5.0,44,30.05,10.0,West,15.0,27.6,N/A,,Mostly Cloudy,280,2013-02-01 14:53:00
10:53 AM,23.0,5.0,46,30.09,10.0,NW,11.5,31.1,N/A,,Mostly Cloudy,320,2013-02-01 15:53:00
11:53 AM,24.1,5.0,44,30.11,10.0,West,15.0,24.2,N/A,,Overcast,270,2013-02-01 16:53:00
12:53 PM,25.0,3.9,41,30.11,10.0,WSW,13.8,24.2,N/A,,Overcast,250,2013-02-01 17:53:00
1:53 PM,24.1,5.0,44,30.13,10.0,WNW,9.2,23.0,N/A,,Overcast,290,2013-02-01 18:53:00
2:53 PM,25.0,3.9,41,30.15,10.0,NNW,10.4,24.2,N/A,,Overcast,330,2013-02-01 19:53:00
3:53 PM,23.0,3.0,42,30.19,10.0,West,9.2,20.7,N/A,,Partly Cloudy,280,2013-02-01 20:53:00
4:53 PM,21.9,1.0,40,30.23,10.0,West,8.1,24.2,N/A,,Scattered Clouds,280,2013-02-01 21:53:00
5:53 PM,19.9,1.9,46,30.26,10.0,Variable,6.9,19.6,N/A,,Clear,0,2013-02-01 22:53:00
6:53 PM,19.9,3.0,48,30.29,10.0,Variable,5.8,-,N/A,,Partly Cloudy,0,2013-02-01 23:53:00
7:53 PM,19.9,1.0,44,30.31,10.0,NW,8.1,-,N/A,,Partly Cloudy,310,2013-02-02 00:53:00
8:53 PM,19.0,1.9,47,30.33,10.0,Variable,6.9,18.4,N/A,,Partly Cloudy,0,2013-02-02 01:53:00
9:53 PM,18.0,1.9,50,30.35,10.0,Variable,6.9,-,N/A,,Clear,0,2013-02-02 02:53:00
10:53 PM,18.0,1.9,50,30.35,10.0,Variable,5.8,-,N/A,,Clear,0,2013-02-02 03:53:00
11:53 PM,17.1,1.9,52,30.37,10.0,Variable,5.8,-,N/A,,Clear,0,2013-02-02 04:53:00